This is the latest recevied weather packets stored in our database for station/object K7DC. If no packets are shown the sender has not sent any weather packets the latest 10 day(s).
| Time | Temp. | Humidity | Pressure | Rain* | Wind** | Luminosity | Snow |
|---|---|---|---|---|---|---|---|
| 1777217606 | 23.33° C | 24% | 1011.2 hPa | 0 mm | - | 476 W/m² | - |
| 1777217302 | 22.78° C | 23% | 1011.2 hPa | 0 mm | - | 459 W/m² | - |
| 1777216998 | 22.78° C | 24% | 1011.2 hPa | 0 mm | - | 442 W/m² | - |
| 1777216696 | 22.78° C | 23% | 1011.2 hPa | 0 mm | - | 421 W/m² | - |
| 1777216391 | 22.78° C | 23% | 1011.2 hPa | 0 mm | - | 399 W/m² | - |
| 1777216090 | 22.78° C | 22% | 1011.2 hPa | 0 mm | - | 382 W/m² | - |
| 1777215785 | 22.22° C | 22% | 1011.3 hPa | 0 mm | - | 362 W/m² | - |
| 1777215482 | 21.67° C | 22% | 1011.1 hPa | 0 mm | - | 339 W/m² | - |
| 1777215178 | 21.67° C | 23% | 1011.1 hPa | 0 mm | - | 321 W/m² | - |
| 1777214873 | 21.67° C | 22% | 1011.1 hPa | 0 mm | - | 303 W/m² | - |
| 1777214572 | 21.67° C | 21% | 1010.8 hPa | 0 mm | - | 190 W/m² | - |
| 1777214268 | 21.11° C | 21% | 1011.1 hPa | 0 mm | - | 260 W/m² | - |
| 1777213966 | 21.11° C | 21% | 1010.9 hPa | 0 mm | - | 57 W/m² | - |
| 1777213661 | 20.56° C | 21% | 1010.8 hPa | 0 mm | - | 61 W/m² | - |
| 1777213357 | 20° C | 22% | 1010.9 hPa | 0 mm | - | 176 W/m² | - |
| 1777213055 | 20° C | 21% | 1010.8 hPa | 0 mm | - | 181 W/m² | - |
| 1777212752 | 20° C | 21% | 1010.6 hPa | 0 mm | - | 162 W/m² | - |
| 1777212447 | 20° C | 21% | 1010.8 hPa | 0 mm | - | 145 W/m² | - |
| 1777212142 | 20° C | 21% | 1010.4 hPa | 0 mm | - | 128 W/m² | - |
| 1777211838 | 20° C | 21% | 1010.5 hPa | 0 mm | - | 114 W/m² | - |
| 1777211536 | 19.44° C | 21% | 1010.4 hPa | 0 mm | - | 99 W/m² | - |
| 1777211232 | 19.44° C | 21% | 1010.5 hPa | 0 mm | - | 86 W/m² | - |
| 1777210930 | 18.89° C | 21% | 1010.1 hPa | 0 mm | - | 74 W/m² | - |
| 1777210628 | 18.33° C | 21% | 1010.3 hPa | 0 mm | - | 62 W/m² | - |
| 1777210326 | 18.33° C | 21% | 1010.3 hPa | 0 mm | - | 34 W/m² | - |
* Rain latest hour (hover to see other rain measurements)
** Current wind speed in m/s (hover to see current wind gust speed)